[[{"header":{"parameterUnit":"m.s-1","parameterCategory":1,"la1":30.2991,"la2":30.254,"lo1":-89.0895,"lo2":-89.0444,"dy":0.0017,"dx":0.0017,"nx":28,"ny":28,"refTime":"2025-01-24T03:00:00:Z","depth":0,"parameterNumber":2,"parameterNumberName":"U-component_of_WINDS"},"data":[0,0,0,0,0,0,0,0,0,0,0,0,0,0,0,0,0,0,0,0,0,0,0,0,0,0,0,0,0,0,0,0,0,0,0,0,0,0,0,0,0,0,0,0,0,0,0,0,0,0,0,0,0,0,0,0,0,0,-1.951,-1.9511,0,-1.9532,-1.9532,-1.9532,-1.9457,-1.9455,-1.9453,-1.9451,-1.9474,-1.9477,-1.948,0,0,0,0,0,0,0,0,0,0,0,0,0,-1.9404,-1.9406,-1.951,-1.9511,-1.9511,-1.9532,-1.9532,-1.9532,-1.9458,-1.9455,-1.9452,-1.945,-1.9473,-1.9477,-1.948,0,0,0,0,0,0,0,0,0,0,0,0,0,-1.9441,-1.9407,-1.951,-1.9476,-1.9473,-1.9532,-1.9532,-1.9533,-1.9458,-1.9455,-1.9451,-1.9448,-1.9472,-1.9476,-1.948,-1.9574,0,0,-1.9493,-1.9495,0,0,0,0,0,0,0,0,-1.9439,-1.9445,-1.9481,-1.9478,-1.9475,-1.9488,-1.9503,-1.9546,-1.9459,-1.9464,-1.945,-1.9447,-1.9482,-1.9485,-1.9497,-1.9575,-1.9576,-1.9493,-1.9496,-1.9498,-1.9499,0,0,0,0,0,0,0,-1.9436,-1.9443,-1.9519,-1.9481,-1.9478,-1.9459,-1.9461,-1.9511,-1.9492,-1.9463,-1.9458,-1.9461,-1.948,-1.9493,-1.9497,-1.9576,-1.9493,-1.9497,-1.9499,-1.9501,-1.973,-1.9733,0,0,0,0,0,0,-1.9438,-1.9442,-1.9518,-1.9519,-1.9448,-1.9464,-1.9466,-1.9488,-1.9491,-1.9488,-1.9464,-1.9458,-1.9487,-1.9492,-1.9497,-1.9605,-1.9498,-1.9501,-1.9504,-1.9726,-1.9731,-1.9734,0,0,0,0,0,0,-1.9436,-1.9446,-1.9517,-1.9479,-1.9487,-1.947,-1.9495,-1.949,-1.9503,-1.9492,-1.9488,-1.9481,-1.9485,-1.9491,-1.9555,-1.9605,-1.9503,-1.9507,-1.9722,-1.9728,-1.9733,-1.9823,0,0,0,0,0,0,-1.9433,-1.9445,-1.9481,-1.948,-1.9489,-1.9575,-1.9498,-1.9493,-1.951,-1.9502,-1.9506,-1.9504,-1.9483,-1.9549,-1.9559,-1.9609,-1.951,-1.9717,-1.9724,-1.9731,-1.9815,-1.983,-1.9844,0,0,0,0,0,-1.943,-1.9506,-1.9483,-1.9493,-1.9533,-1.9578,-1.9583,-1.9556,-1.9514,-1.9549,-1.9542,-1.9504,-1.9598,-1.9556,-1.9566,-1.9618,-1.9714,-1.9722,-1.973,-1.9809,-1.9827,-1.9843,0,0,0,0,0,0,-1.9514,-1.9506,-1.948,-1.9558,-1.9569,-1.9565,-1.9609,-1.9577,-1.9601,-1.9592,-1.9559,-1.956,-1.9629,-1.963,-1.9584,-1.9708,-1.9649,-1.9659,-1.9705,-1.9722,-1.9736,-1.9734,-1.9514,0,0,0,0,0,-1.9542,-1.9579,-1.9569,-1.9639,-1.9646,-1.9627,-1.9645,-1.9624,-1.9634,-1.9638,-1.9636,-1.9647,-1.9679,-1.9701,-1.973,-1.9815,-1.9814,-1.9855,-1.987,-1.9881,-1.9891,-1.9934,-1.9952,-1.9761,-1.9761,-1.9761,0,0,-1.96,-1.9599,-1.9625,-1.9656,-1.9662,-1.9701,-1.9631,-1.9676,-1.9704,-1.9645,-1.9704,-1.9703,-1.9713,-1.9787,-1.982,-1.979,-1.9943,-1.9892,-1.9901,-1.9904,-1.9944,-1.9962,-1.9978,-1.9767,-1.9766,-1.9765,0,0,-1.9724,-1.9728,-1.9786,-1.9793,-1.9802,-1.9788,-1.9802,-1.9803,-1.9799,-1.9857,-1.9813,-1.9847,-1.9903,-1.9911,-1.9923,-2.0049,-2.0014,-2.0059,-2.0134,-2.0176,-2.0191,-2.0204,-2.0248,-2.0264,-2.0069,-2.0069,-2.0069,0,-1.9795,-1.9851,-1.982,-1.9867,-1.9881,-1.9829,-1.9886,-1.9895,-1.9914,-1.9925,-1.9891,-1.9958,-1.9962,-2.0037,-2.0067,-2.0079,-2.0093,-2.0058,-2.0191,-2.0204,-2.0216,-2.0257,-2.0274,-2.0074,-2.0074,-2.0073,-2.0073,0,-1.9937,-1.9976,-2.0022,-2.004,-2.0059,-2.0112,-2.0088,-2.0112,-2.0088,-2.0078,-2.0137,-2.0139,-2.0167,-2.0183,-2.0161,-2.0254,-2.0235,-2.0197,-2.0137,-2.024,-2.0278,-2.0293,-2.0082,-2.008,-2.0078,-2.0077,0,0,-2.0117,-2.0115,-2.0132,-2.0138,-2.0144,-2.0173,-2.0223,-2.0248,-2.0269,-2.0283,-2.0323,-2.037,-2.0334,-2.0348,-2.0326,-2.0364,-2.0461,-2.0321,-2.032,-2.0346,-2.0562,-2.0589,-2.0608,-2.0438,-2.0441,-2.0443,-2.056,0,-2.0238,-2.0321,-2.0293,-2.0378,-2.0413,-2.0363,-2.0405,-2.0413,-2.0404,-2.0433,-2.0423,-2.0457,-2.0408,-2.0415,-2.045,-2.0442,-2.0504,-2.0433,-2.0474,-2.0476,-2.0472,-2.0628,-2.0658,-2.0769,-2.0575,-2.0578,-2.0579,0,-2.0391,-2.0409,-2.0497,-2.0494,-2.0508,-2.0546,-2.0566,-2.0595,-2.0602,-2.0593,-2.0607,-2.0577,-2.0624,-2.0564,-2.0629,-2.0581,-2.0596,-2.0594,-2.0598,-2.06,-2.0534,-2.0634,-2.0803,-2.082,-2.0603,-2.0601,-2.0599,0,-2.0511,-2.0558,-2.0616,-2.0623,-2.0622,-2.065,-2.0651,-2.0654,-2.0671,-2.0689,-2.0699,-2.0723,-2.0736,-2.0754,-2.0731,-2.069,-2.0798,-2.0737,-2.0791,-2.0792,-2.0816,-2.0815,-2.099,-2.0828,-2.0828,-2.0828,-2.0827,0,-2.0649,-2.0704,-2.0669,-2.0705,-2.0765,-2.0733,-2.0793,-2.0788,-2.0791,-2.0825,-2.0783,-2.0816,-2.0783,-2.0813,-2.0795,-2.085,-2.0856,-2.085,-2.0844,-2.0853,-2.0854,-2.0862,-2.0853,-2.0832,-2.0831,-2.083,-2.0829,0,-2.0794,-2.0773,-2.0832,-2.0825,-2.0824,-2.0869,-2.0863,-2.0895,-2.0882,-2.0925,-2.0933,-2.0914,-2.0946,-2.0925,-2.0958,-2.0945,-2.1017,-2.1001,-2.1014,-2.101,-2.1065,-2.1059,-2.125,-2.1273,-2.1098,-2.11,-2.1101,0,-2.0882,-2.0923,-2.092,-2.0939,-2.0942,-2.0973,-2.0989,-2.0958,-2.0977,-2.0987,-2.1018,-2.1046,-2.1067,-2.112,-2.1109,-2.1133,-2.1117,-2.1182,-2.1121,-2.1127,-2.1116,-2.1114,-2.1117,-2.1195,-2.1197,-2.1199,-2.12,0,-2.1042,-2.1029,-2.1053,-2.1073,-2.1093,-2.1108,-2.1119,-2.1137,-2.1106,-2.1129,-2.116,-2.1176,-2.1208,-2.1236,-2.1256,-2.1257,-2.1223,-2.1219,-2.1233,-2.1242,-2.1247,-2.1243,-2.1047,-2.1215,-2.1214,-2.1212,-2.1212,-2.1211,-2.116,-2.1193,-2.1195,-2.1223,-2.1228,-2.1239,-2.1268,-2.1259,-2.1284,-2.1307,-2.1288,-2.1325,-2.1329,-2.1352,-2.1357,-2.1385,-2.1359,-2.1379,-2.1384,-2.1389,-2.1396,-2.1243,-2.1389,-2.1389,-2.1388,-2.1388,-2.1388,0,-2.1316,-2.1314,-2.134,-2.1356,-2.1378,-2.1343,-2.1354,-2.1374,-2.1407,-2.1414,-2.1434,-2.1469,-2.1496,-2.1487,-2.151,-2.1534,-2.1519,-2.1542,-2.1539,-2.1539,-2.1419,-2.1404,-2.1553,-2.1553,-2.1553,-2.1553,-2.1553,-2.1553,-2.14,-2.1453,-2.144,-2.1495,-2.1493,-2.1528,-2.1537,-2.1546,-2.1551,-2.1592,-2.1613,-2.1606,-2.1606,-2.1629,-2.1651,-2.1648,-2.1658,-2.1685,-2.1676,-2.1564,-2.1548,-2.1532,-2.1518,-2.1688,-2.1688,-2.1793,-2.1794,-2.1795]},{"header":{"parameterUnit":"m.s-1","parameterCategory":1,"la1":30.2991,"la2":30.254,"lo1":-89.0895,"lo2":-89.0444,"dy":0.0017,"dx":0.0017,"nx":28,"ny":28,"refTime":"2025-01-24T03:00:00:Z","depth":0,"parameterNumber":3,"parameterNumberName":"V-component_of_WINDS"},"data":[0,0,0,0,0,0,0,0,0,0,0,0,0,0,0,0,0,0,0,0,0,0,0,0,0,0,0,0,0,0,0,0,0,0,0,0,0,0,0,0,0,0,0,0,0,0,0,0,0,0,0,0,0,0,0,0,0,0,-3.3863,-3.3865,0,-3.3979,-3.3981,-3.3982,-3.3953,-3.3951,-3.3949,-3.3947,-3.4062,-3.4067,-3.4072,0,0,0,0,0,0,0,0,0,0,0,0,0,-3.3614,-3.3619,-3.3863,-3.3865,-3.3866,-3.3979,-3.3981,-3.3982,-3.3954,-3.3951,-3.3948,-3.3946,-3.4061,-3.4067,-3.4073,0,0,0,0,0,0,0,0,0,0,0,0,0,-3.3725,-3.362,-3.3863,-3.3866,-3.3867,-3.3979,-3.3981,-3.3983,-3.3954,-3.3951,-3.3948,-3.3945,-3.4059,-3.4066,-3.4074,-3.4189,0,0,-3.4097,-3.4101,0,0,0,0,0,0,0,0,-3.3719,-3.3734,-3.3864,-3.3866,-3.3868,-3.3949,-3.3935,-3.4052,-3.3955,-3.3921,-3.3947,-3.3943,-3.4027,-3.4037,-3.4066,-3.4194,-3.4199,-3.4098,-3.4103,-3.4106,-3.4108,0,0,0,0,0,0,0,-3.3711,-3.3729,-3.3909,-3.3866,-3.3868,-3.386,-3.3872,-3.3957,-3.3991,-3.3924,-3.3922,-3.3936,-3.4027,-3.4059,-3.4069,-3.4201,-3.4098,-3.4105,-3.411,-3.4113,-3.4428,-3.4431,0,0,0,0,0,0,-3.3702,-3.3723,-3.3905,-3.3913,-3.3784,-3.3867,-3.3881,-3.3926,-3.399,-3.3997,-3.3939,-3.3935,-3.4047,-3.406,-3.4073,-3.421,-3.4106,-3.4113,-3.4118,-3.4424,-3.4428,-3.4432,0,0,0,0,0,0,-3.3697,-3.3719,-3.3901,-3.3817,-3.384,-3.3875,-3.3926,-3.393,-3.3961,-3.4002,-3.4008,-3.3965,-3.4045,-3.4062,-3.416,-3.4214,-3.4117,-3.4124,-3.4419,-3.4425,-3.443,-3.4488,0,0,0,0,0,0,-3.369,-3.3717,-3.3762,-3.3819,-3.3844,-3.3988,-3.3929,-3.3935,-3.3975,-3.397,-3.4028,-3.4034,-3.4044,-3.4149,-3.4168,-3.4223,-3.413,-3.4415,-3.4422,-3.4429,-3.4481,-3.4495,-3.4506,0,0,0,0,0,-3.3681,-3.3773,-3.3765,-3.3787,-3.3902,-3.3991,-3.4005,-3.4015,-3.398,-3.4024,-3.405,-3.4032,-3.4205,-3.4159,-3.418,-3.4239,-3.4411,-3.442,-3.4428,-3.4476,-3.4492,-3.4506,0,0,0,0,0,0,-3.3722,-3.3781,-3.3772,-3.3885,-3.3933,-3.3986,-3.4043,-3.4033,-3.4091,-3.4084,-3.4093,-3.4106,-3.4206,-3.4232,-3.418,-3.4353,-3.4303,-3.4316,-3.4332,-3.4348,-3.436,-3.4351,-3.4136,0,0,0,0,0,-3.3744,-3.3812,-3.386,-3.3955,-3.398,-3.4007,-3.4047,-3.405,-3.41,-3.412,-3.4153,-3.4201,-3.4266,-3.4308,-3.437,-3.4485,-3.4496,-3.4536,-3.4548,-3.4558,-3.4569,-3.463,-3.4648,-3.446,-3.446,-3.446,0,0,-3.379,-3.3831,-3.3874,-3.3964,-3.4002,-3.4072,-3.4025,-3.41,-3.4151,-3.4131,-3.4226,-3.4252,-3.4306,-3.4412,-3.4461,-3.4437,-3.4623,-3.4569,-3.4577,-3.4582,-3.4641,-3.4658,-3.4674,-3.4466,-3.4465,-3.4464,0,0,-3.391,-3.3948,-3.4031,-3.407,-3.4128,-3.4146,-3.4165,-3.422,-3.4236,-3.4332,-3.4318,-3.4378,-3.449,-3.4529,-3.4563,-3.4697,-3.4682,-3.4717,-3.4782,-3.4842,-3.4856,-3.4869,-3.4916,-3.4933,-3.4728,-3.4728,-3.4728,0,-3.396,-3.4065,-3.4075,-3.4152,-3.4192,-3.4177,-3.426,-3.4297,-3.4372,-3.4399,-3.4372,-3.4512,-3.4547,-3.4662,-3.4695,-3.4724,-3.4745,-3.471,-3.4854,-3.4867,-3.4879,-3.4924,-3.4941,-3.4732,-3.4732,-3.4731,-3.4731,0,-3.4123,-3.4196,-3.4256,-3.4329,-3.4376,-3.4456,-3.4476,-3.4522,-3.4522,-3.4542,-3.4638,-3.468,-3.475,-3.4778,-3.4778,-3.4893,-3.4876,-3.4851,-3.4801,-3.4901,-3.4942,-3.496,-3.4737,-3.4736,-3.4735,-3.4734,0,0,-3.4271,-3.4349,-3.437,-3.4403,-3.4466,-3.4522,-3.46,-3.4669,-3.4708,-3.476,-3.4825,-3.492,-3.4897,-3.4936,-3.494,-3.4993,-3.5095,-3.4962,-3.4963,-3.4984,-3.5222,-3.524,-3.5259,-3.5086,-3.5089,-3.5092,-3.5217,0,-3.4395,-3.4534,-3.4545,-3.467,-3.4737,-3.4724,-3.4792,-3.4837,-3.4858,-3.4917,-3.4939,-3.5006,-3.4972,-3.4995,-3.5046,-3.5072,-3.5142,-3.5063,-3.5145,-3.5148,-3.5131,-3.5282,-3.53,-3.5417,-3.5234,-3.5237,-3.5239,0,-3.4558,-3.4616,-3.4748,-3.48,-3.4829,-3.489,-3.4954,-3.5011,-3.5061,-3.5072,-3.5116,-3.5113,-3.5192,-3.514,-3.5248,-3.5194,-3.5228,-3.5245,-3.525,-3.5257,-3.5198,-3.5291,-3.5455,-3.5472,-3.5265,-3.5263,-3.5261,0,-3.4651,-3.4762,-3.4855,-3.4883,-3.4947,-3.499,-3.5019,-3.5066,-3.5107,-3.5162,-3.5188,-3.5252,-3.5287,-3.5335,-3.5349,-3.531,-3.5457,-3.5406,-3.5467,-3.5467,-3.5497,-3.5495,-3.5667,-3.5522,-3.5521,-3.5521,-3.5521,0,-3.4788,-3.4869,-3.4898,-3.4955,-3.5044,-3.5056,-3.5144,-3.517,-3.5212,-3.5272,-3.5265,-3.5322,-3.5337,-3.5396,-3.5407,-3.5494,-3.551,-3.5521,-3.5522,-3.5521,-3.5519,-3.5542,-3.5534,-3.5526,-3.5525,-3.5524,-3.5523,0,-3.4907,-3.493,-3.503,-3.5082,-3.5097,-3.5161,-3.5205,-3.5259,-3.5279,-3.5356,-3.5374,-3.5405,-3.5474,-3.5493,-3.5576,-3.5583,-3.5686,-3.568,-3.5669,-3.5668,-3.5728,-3.5721,-3.592,-3.5946,-3.5784,-3.5786,-3.5787,0,-3.4993,-3.5055,-3.5114,-3.5154,-3.5185,-3.525,-3.5292,-3.5305,-3.5348,-3.541,-3.5457,-3.5525,-3.5581,-3.5692,-3.5721,-3.5784,-3.5779,-3.5845,-3.5789,-3.5785,-3.5779,-3.5774,-3.578,-3.5855,-3.5856,-3.5858,-3.5859,0,-3.5141,-3.5149,-3.521,-3.5275,-3.5325,-3.5376,-3.5425,-3.5458,-3.5478,-3.5527,-3.5599,-3.5642,-3.5727,-3.5794,-3.5858,-3.5886,-3.5875,-3.5876,-3.5894,-3.5892,-3.5882,-3.5887,-3.5696,-3.5872,-3.587,-3.5869,-3.5869,-3.5868,-3.5245,-3.5299,-3.5349,-3.5417,-3.5455,-3.5501,-3.5554,-3.5581,-3.5641,-3.5712,-3.5716,-3.5793,-3.584,-3.5925,-3.5956,-3.6016,-3.5996,-3.6021,-3.6027,-3.6033,-3.6038,-3.5874,-3.6028,-3.6027,-3.6027,-3.6027,-3.6026,0,-3.5393,-3.5424,-3.5486,-3.5555,-3.5608,-3.5595,-3.5648,-3.5693,-3.5761,-3.5807,-3.5862,-3.5943,-3.6009,-3.6043,-3.6108,-3.6149,-3.6146,-3.6165,-3.6162,-3.6168,-3.6052,-3.603,-3.6167,-3.6167,-3.6167,-3.6167,-3.6167,-3.6166,-3.5475,-3.5566,-3.558,-3.5688,-3.5719,-3.5795,-3.5826,-3.5868,-3.5905,-3.5996,-3.6051,-3.6073,-3.6114,-3.6181,-3.624,-3.6249,-3.6272,-3.6294,-3.63,-3.6191,-3.6176,-3.6162,-3.6142,-3.6299,-3.63,-3.641,-3.6411,-3.6412]}]]